All Starts

As of 02.24.18

Rafael Bejarano

Add To
Virtual Stable
Back to Profile

All Starts in Thoroughbred Races

Track Date Race Race Type Purse Horse Name Finish Chart Video
TP 01/02/2004 1 Maiden Claiming $7,500 Clayton's Cat 1 N/A
TP 01/02/2004 2 Claiming $7,300 Uncle Freddie 1 N/A
TP 01/02/2004 3 Claiming $11,000 Red Rage 1 N/A
TP 01/02/2004 4 Maiden Claiming $7,500 Wade and Tay 4 N/A
TP 01/02/2004 5 Claiming $8,200 Hymns of Glory 1 N/A
TP 01/02/2004 6 Claiming $18,000 Junket 1 N/A
TP 01/02/2004 7 Maiden Claiming $12,000 Tighthold 2 N/A
TP 01/02/2004 8 Allowance $25,400 Rich Find 2 N/A
TP 01/02/2004 9 Allowance $25,400 Enjoy the Journey 1 N/A
TP 01/02/2004 10 Claiming $8,200 Buckner Bert 2 N/A
TP 01/03/2004 1 Maiden Claiming $7,500 Golden Affirmation 3 N/A
TP 01/03/2004 3 Claiming $7,300 Mr Spark 3 N/A
TP 01/03/2004 4 Claiming $6,300 Cruiseship 1 N/A
TP 01/03/2004 5 Maiden Special Weight $23,900 Darby's Charm 2 N/A
TP 01/03/2004 6 Claiming $11,000 Gentlemen Duel 6 N/A
TP 01/03/2004 7 Maiden Special Weight $23,900 The Wrong Face 3 N/A
TP 01/03/2004 8 Claiming $7,700 Mr. Bartlett 1 N/A
TP 01/03/2004 9 Claiming $12,000 Miss Barner 1 N/A
TP 01/03/2004 10 Turfway Prevue Stakes $50,000 Silver Minister 1 N/A
TP 01/03/2004 12 Claiming $7,700 Besttobeabachelor 2 N/A
TP 01/04/2004 1 Claiming $6,300 Silverwood 3 N/A
TP 01/04/2004 2 Maiden Claiming $7,500 Untamed 2 N/A
TP 01/04/2004 3 Claiming $8,200 Faxer Than You 1 N/A
TP 01/04/2004 4 Claiming $9,100 Sudden Glory 2 N/A
TP 01/04/2004 5 Maiden Claiming $10,000 Decisive Strike 2 N/A
TP 01/04/2004 7 Starter Allowance $10,000 World Champion 2 N/A
TP 01/04/2004 8 Claiming $13,900 Maggie's Dream 2 N/A
TP 01/04/2004 9 Allowance $28,500 High Humidity 2 N/A
TP 01/07/2004 3 Claiming $7,300 Cindy's Hobby 1 N/A
TP 01/07/2004 4 Maiden Claiming $10,000 Down Up 1 N/A
TP 01/07/2004 5 Claiming $11,000 Raise the Stakes 1 N/A
TP 01/07/2004 6 Maiden Special Weight $23,900 Done Slew's Way 8 N/A
TP 01/07/2004 7 Claiming $10,000 Adams Peak 2 N/A
TP 01/07/2004 8 Allowance $25,400 Commandment 2 N/A
TP 01/07/2004 9 Claiming $7,300 Proper Paradise 2 N/A
TP 01/08/2004 1 Maiden Claiming $10,000 American Boundary 2 N/A
TP 01/08/2004 2 Maiden Claiming $12,000 Remote Control 5 N/A
TP 01/08/2004 3 Claiming $7,300 Peepsight 1 N/A
TP 01/08/2004 4 Maiden Special Weight $23,900 Thompson Gee 2 N/A
TP 01/08/2004 5 Claiming $11,000 She Be Fapiano 2 N/A
TP 01/08/2004 6 Maiden Special Weight $23,900 Bloodshot 2 N/A
TP 01/08/2004 7 Claiming $18,000 Lady Shelley 6 N/A
TP 01/08/2004 8 Allowance $25,400 Another Elusive 5 N/A
TP 01/08/2004 9 Claiming $7,700 Cathy's Dream 4 N/A
TP 01/09/2004 1 Maiden Claiming $7,500 Highpoint Princess 3 N/A
TP 01/09/2004 2 Maiden Claiming $13,900 Sports Bettor 3 N/A
TP 01/09/2004 4 Claiming $7,300 Fiery Six 4 N/A
TP 01/09/2004 6 Maiden Special Weight $26,100 Miss Wellspring 2 N/A
TP 01/09/2004 7 Claiming $7,300 Ship's Silver 3 N/A
TP 01/09/2004 8 Claiming $13,900 Bubba's Colors 3 N/A
TP 01/09/2004 9 Allowance $27,700 Stormy Terms 4 N/A
TP 01/09/2004 10 Maiden Claiming $7,500 Remington Katrina 6 N/A
TP 01/10/2004 1 Maiden Claiming $7,500 Tee's Tempter 6 N/A
TP 01/10/2004 2 Maiden Claiming $7,500 Edelweiss Song 2 N/A
TP 01/10/2004 3 Claiming $6,300 Worth Winning 3 N/A
TP 01/10/2004 4 Maiden Claiming $7,500 L'Egal Ethics 1 N/A
TP 01/10/2004 5 Claiming $8,200 Dream of Wealth 6 N/A
TP 01/10/2004 6 Claiming $12,900 Fashion Island 2 N/A
TP 01/10/2004 7 Maiden Special Weight $26,100 Hit the Lights 3 N/A
TP 01/10/2004 8 Claiming $10,000 Betwineyouandme 6 N/A
TP 01/10/2004 9 Allowance $29,300 Miz Landy 1 N/A
TP 01/10/2004 10 Wishing Well Stakes $50,000 Saratoga Humor 1 N/A
TP 01/10/2004 11 Claiming $7,300 Black Ties Ferrari 8 N/A
TP 01/10/2004 12 Maiden Claiming $10,000 Yester Morn 1 N/A
TP 01/11/2004 1 Claiming $7,300 A Bit Foolish 1 N/A
TP 01/11/2004 3 Claiming $7,300 Self Esteem 5 N/A
TP 01/11/2004 4 Claiming $8,200 Valentina Rose 6 N/A
TP 01/11/2004 5 Maiden Claiming $10,000 Cynthia's Anna 5 N/A
TP 01/11/2004 6 Claiming $7,700 Clever Deputy 3 N/A
TP 01/11/2004 8 Claiming $20,000 Ide Be Spencers 2 N/A
TP 01/11/2004 9 Allowance $27,700 Desert Monarch 2 N/A
TP 01/11/2004 10 Claiming $11,000 Sonny's Legacy 1 N/A
TP 01/14/2004 1 Maiden Claiming $10,000 Myra Gulch 3 N/A
TP 01/14/2004 2 Claiming $11,000 Matty Fine 2 N/A
TP 01/14/2004 4 Claiming $9,100 Friendly Cop 1 N/A
TP 01/14/2004 5 Maiden Special Weight $26,100 Darby's Charm 1 N/A
TP 01/14/2004 6 Claiming $12,900 Nippert 10 N/A
TP 01/14/2004 7 Claiming $13,900 Emily's Mark 1 N/A
TP 01/14/2004 8 Allowance $29,300 Clayton's Trick 1 N/A
TP 01/14/2004 9 Claiming $7,300 Shannon's Delight 1 N/A
TP 01/15/2004 2 Maiden Claiming $12,000 Western Hussy 1 N/A
TP 01/15/2004 3 Claiming $9,100 Living Fully 1 N/A
TP 01/15/2004 5 Claiming $7,300 Cool Rain Falling 2 N/A
TP 01/15/2004 6 Claiming $10,000 He Be Irish 1 N/A
TP 01/15/2004 7 Maiden Special Weight $26,100 Toy Tigress 2 N/A
TP 01/15/2004 8 Allowance $27,700 Quiet Charm 4 N/A
TP 01/16/2004 1 Maiden Claiming $7,500 Reid's Mess 4 N/A
TP 01/16/2004 3 Maiden Claiming $7,500 Honor and Obey 7 N/A
TP 01/16/2004 4 Claiming $7,300 Mr Spark 1 N/A
TP 01/16/2004 5 Claiming $7,700 Irgun's Trial 1 N/A
TP 01/16/2004 6 Claiming $8,200 Cruiseship 4 N/A
TP 01/16/2004 7 Maiden Claiming $10,000 Silver Mark 2 N/A
TP 01/16/2004 8 Claiming $20,000 Smiling Sky 1 N/A
TP 01/16/2004 9 Allowance $29,300 Chicken Soup Kid 2 N/A
TP 01/16/2004 10 Claiming $6,300 What a Filly Les 1 N/A
TP 01/17/2004 2 Maiden Claiming $10,000 Remote Control 5 N/A
TP 01/17/2004 3 Claiming $8,200 Is This Heaven 1 N/A
TP 01/17/2004 4 Maiden Special Weight $26,100 Capability 1 N/A
TP 01/17/2004 5 Claiming $7,300 Ann's Emblem 1 N/A
TP 01/17/2004 6 Claiming $9,100 Miss Romeo 6 N/A
TP 01/17/2004 7 Maiden Claiming $12,000 Westendvalues 1 N/A
TP 01/17/2004 8 Claiming $13,900 Life Sayver 5 N/A
TP 01/17/2004 9 Allowance $27,700 Desert Girl 6 N/A
TP 01/17/2004 10 Cincinnati Trophy Stakes $50,000 Plumlake Lady 3 N/A
TP 01/18/2004 1 Maiden Claiming $12,000 Lonesomenumberone 1 N/A
TP 01/18/2004 2 Claiming $7,300 Fiery Six 6 N/A
TP 01/18/2004 3 Claiming $12,000 Sharp Little Boy 1 N/A
TP 01/18/2004 4 Starter Allowance $10,000 Sudden Glory 1 N/A
TP 01/18/2004 5 Maiden Special Weight $26,100 Royal Banker 1 N/A
TP 01/18/2004 6 Allowance $27,700 Man of Conquest 4 N/A
TP 01/18/2004 7 Claiming $6,300 Lee Gage 7 N/A
TP 01/18/2004 8 Allowance $29,300 Cozy One 2 N/A
TP 01/18/2004 9 Allowance $35,100 Balla Twine 1 N/A
TP 01/21/2004 2 Claiming $6,300 Neenamusha 3 N/A
TP 01/21/2004 3 Claiming $7,300 Super Bowl 2 N/A
TP 01/21/2004 5 Claiming $7,700 Mr. Bartlett 4 N/A
TP 01/21/2004 6 Claiming $20,000 Junket 3 N/A
TP 01/21/2004 7 Claiming $12,000 Miss Barner 4 N/A
TP 01/21/2004 8 Allowance $28,500 Hall Lass 3 N/A
TP 01/21/2004 9 Maiden Claiming $7,500 Wade and Tay 7 N/A
TP 01/22/2004 1 Maiden Claiming $7,500 Wild Willys Philly 2 N/A
TP 01/22/2004 2 Claiming $6,300 A Table for Three 6 N/A
TP 01/22/2004 3 Claiming $8,200 Extensive Quality 4 N/A
TP 01/23/2004 1 Maiden Claiming $7,500 Prime Star 1 N/A
TP 01/23/2004 2 Claiming $7,300 Trinas Other Son 1 N/A
TP 01/23/2004 3 Maiden Claiming $12,000 Maria's Halo 2 N/A
TP 01/23/2004 6 Claiming $11,000 Moonroper 2 N/A
TP 01/23/2004 7 Maiden Special Weight $26,800 Heroic Deed 3 N/A
TP 01/23/2004 8 Claiming $10,000 Okie I Am 3 N/A
TP 01/23/2004 9 Allowance $28,500 Perfect Ride 1 N/A
TP 01/23/2004 10 Maiden Claiming $10,000 Twisted Feather 4 N/A
TP 01/24/2004 1 Maiden Claiming $7,500 My Chance to Dance 2 N/A
TP 01/24/2004 2 Claiming $8,200 Pintail 4 N/A
TP 01/24/2004 3 Maiden Special Weight $26,800 Hit the Lights 2 N/A
TP 01/24/2004 4 Claiming $11,000 Only Thrill 3 N/A
TP 01/24/2004 5 Claiming $7,300 Clever Deputy 1 N/A
TP 01/24/2004 6 Allowance $28,500 Danieltown 1 N/A
TP 01/24/2004 7 Maiden Claiming $12,000 Object of Desire 6 N/A
TP 01/24/2004 8 Claiming $11,000 Gato Montanes 6 N/A
TP 01/24/2004 9 Allowance $30,200 Buy Out Time 1 N/A
TP 01/24/2004 10 Forego Stakes $50,000 Dubai Sheikh 5 N/A
TP 01/24/2004 11 Claiming $18,000 Savannah Hanna 3 N/A
TP 01/24/2004 12 Claiming $7,700 Just Gold 12 N/A
TP 01/28/2004 1 Maiden Claiming $7,500 Miss Mulie 2 N/A
TP 01/28/2004 3 Maiden Claiming $7,500 Booggie Cat 4 N/A
TP 01/28/2004 4 Claiming $8,200 Carts Forty More 1 N/A
TP 01/28/2004 5 Maiden Claiming $10,000 Land Grab 1 N/A
TP 01/28/2004 7 Claiming $18,000 Ride 'Em Rags 2 N/A
TP 01/28/2004 8 Allowance $28,500 Cat's Account 3 N/A
TP 01/28/2004 9 Claiming $9,100 Chuck Yeager 5 N/A
TP 01/29/2004 1 Maiden Special Weight $26,800 Libertyville 5 N/A
TP 01/29/2004 2 Claiming $6,300 Cry Misty 1 N/A
TP 01/29/2004 3 Claiming $8,200 Matty Fine 3 N/A
TP 01/29/2004 4 Claiming $7,300 Mr Spark 1 N/A
TP 01/29/2004 5 Claiming $11,000 Primal Effort 1 N/A
TP 01/29/2004 6 Maiden Special Weight $26,800 Sports Bettor 4 N/A
TP 01/29/2004 7 Claiming $7,700 Command Power 1 N/A
TP 01/29/2004 8 Allowance $30,200 Stash the Boots 2 N/A
TP 01/29/2004 9 Maiden Claiming $10,000 No Fishing 5 N/A
TP 02/01/2004 2 Maiden Claiming $7,500 Emma's Wish 4 N/A
TP 02/01/2004 3 Claiming $8,200 Steelbender 5 N/A
TP 02/01/2004 4 Maiden Claiming $10,000 Myra Gulch 1 N/A
TP 02/01/2004 5 Claiming $6,300 Fusty 1 N/A
TP 02/01/2004 6 Claiming $7,300 Ship's Silver 1 N/A
TP 02/01/2004 7 Claiming $12,000 Sharp Little Boy 3 N/A
TP 02/01/2004 8 Allowance $28,500 Rich Find 5 N/A
TP 02/01/2004 9 Allowance $30,200 Cozy One 2 N/A
TP 02/01/2004 10 Claiming $7,300 More Than Golden 1 N/A
TP 02/04/2004 1 Claiming $8,200 Silver Skip 2 N/A
TP 02/04/2004 2 Maiden Claiming $10,000 Cynthia's Anna 4 N/A
TP 02/04/2004 3 Claiming $6,300 Silverwood 7 N/A
TP 02/04/2004 4 Maiden Special Weight $26,800 Monastic 2 N/A
TP 02/04/2004 5 Claiming $9,100 Molokai Connection 1 N/A
TP 02/04/2004 6 Claiming $9,100 Cindy's Hobby 2 N/A
TP 02/04/2004 7 Claiming $13,900 Exile Lark (BRZ) 4 N/A
TP 02/06/2004 1 Maiden Claiming $7,500 Livae 4 N/A
TP 02/06/2004 2 Claiming $6,300 Heavy Chimes 4 N/A
TP 02/06/2004 3 Maiden Claiming $13,900 Prison of Love 3 N/A
TP 02/06/2004 4 Maiden Claiming $7,500 Golden Affirmation 5 N/A
TP 02/06/2004 7 Claiming $11,000 Knob Hill 2 N/A
TP 02/06/2004 8 Maiden Special Weight $26,800 Show Me the Roses 4 N/A
TP 02/06/2004 9 Claiming $12,900 Sing Softly 1 N/A
TP 02/06/2004 10 Allowance $28,500 Royal Banker 4 N/A
TP 02/06/2004 11 Claiming $7,300 Fiery Six 3 N/A
TP 02/06/2004 12 Claiming $7,300 Super Bowl 2 N/A
TP 02/07/2004 1 Maiden Claiming $7,500 B N One 3 N/A
TP 02/07/2004 2 Claiming $7,300 Prince Joe (ARG) 1 N/A
TP 02/07/2004 3 Maiden Claiming $7,500 Twisted Feather 1 N/A
TP 02/07/2004 4 Claiming $13,900 Allie's Hope 4 N/A
TP 02/07/2004 5 Claiming $9,100 Chuck Yeager 4 N/A
TP 02/07/2004 6 Claiming $7,300 Clever Deputy 2 N/A
TP 02/07/2004 7 Allowance $28,500 Man of Conquest 1 N/A
TP 02/07/2004 8 Allowance $28,500 Desert Monarch 2 N/A
TP 02/07/2004 9 WEBN Stakes $50,000 Silver Minister 1 N/A
TP 02/08/2004 1 Maiden Claiming $7,500 Distante 4 N/A
TP 02/08/2004 2 Claiming $7,300 Proper Paradise 1 N/A
TP 02/08/2004 3 Claiming $6,300 Neenamusha 2 N/A
MNR 02/10/2004 3 Maiden Special Weight $21,700 Bela Carol 1 N/A
MNR 02/10/2004 6 Claiming $12,400 A Bit Foolish 1 N/A
TP 02/15/2004 1 Maiden Claiming $13,200 Object of Desire 6 N/A
TP 02/15/2004 2 Claiming $10,000 Friendly Cop 4 N/A
TP 02/15/2004 3 Claiming $12,100 Only Thrill 2 N/A
TP 02/15/2004 4 Maiden Special Weight $29,600 Southern Snuggle 2 N/A
TP 02/15/2004 5 Claiming $13,200 Red Rage 2 N/A
TP 02/15/2004 7 Allowance $31,300 Cat's Account 1 N/A
TP 02/15/2004 8 Claiming $12,100 K P's Kandy 1 N/A
TP 02/15/2004 9 Allowance $31,300 Tanner Danner 1 N/A
TP 02/15/2004 10 Maiden Claiming $11,000 Booggie Cat 4 N/A
LRL 02/16/2004 9 General George Handicap (Gr. 2) $200,000 Founding Chairman 9 N/A
TP 02/18/2004 1 Claiming $8,000 Dealer's Suprise 1 N/A
TP 02/18/2004 2 Claiming $6,900 Steelbender 12 N/A
TP 02/18/2004 3 Claiming $9,000 Katiesboy 4 N/A
TP 02/18/2004 4 Maiden Special Weight $29,600 Milk River 6 N/A
TP 02/18/2004 5 Claiming $8,500 House Hunting 8 N/A
TP 02/18/2004 6 Maiden Special Weight $29,600 Monastic 1 N/A
TP 02/18/2004 7 Claiming $11,000 He Be Irish 4 N/A
TP 02/18/2004 8 Allowance $33,100 Perfect Ride 1 N/A
TP 02/18/2004 9 Maiden Claiming $8,200 Untamed 1 N/A
TP 02/19/2004 1 Maiden Claiming $8,200 Wade and Tay 3 N/A
TP 02/19/2004 2 Claiming $10,000 Betwineyouandme 2 N/A
TP 02/19/2004 3 Claiming $8,000 Cathy's Dream 6 N/A
TP 02/19/2004 6 Claiming $6,900 Valentina Rose 2 N/A
TP 02/19/2004 7 Claiming $22,000 Fashion Island 3 N/A
TP 02/19/2004 8 Allowance $31,300 Emily's Mark 3 N/A
TP 02/20/2004 1 Maiden Claiming $8,200 Rahrah Bertie 2 N/A
TP 02/20/2004 2 Claiming $9,000 A's Anchorman 5 N/A
TP 02/20/2004 3 Maiden Claiming $11,000 No Fishing 2 N/A
TP 02/20/2004 4 Claiming $8,000 Miss E's Report 4 N/A
TP 02/20/2004 5 Claiming $12,100 Dues for the Blues 2 N/A
TP 02/20/2004 6 Claiming $15,300 Sonny's Legacy 3 N/A
TP 02/20/2004 8 Claiming $15,300 Exile Lark (BRZ) 5 N/A
TP 02/20/2004 9 Allowance $33,100 Cozy One 1 N/A
TP 02/20/2004 10 Allowance $37,000 Saratoga Humor 5 N/A
TP 02/20/2004 11 Claiming $12,100 James Madison 3 N/A
TP 02/20/2004 12 Claiming $8,500 Command Power 6 N/A
TP 02/21/2004 1 Maiden Special Weight $29,600 Hit the Lights 4 N/A
TP 02/21/2004 2 Claiming $6,900 Lostriversprospect 6 N/A
TP 02/21/2004 3 Claiming $10,000 Miss Romeo 4 N/A
TP 02/21/2004 4 Allowance $31,300 Keep This Cat 2 N/A
TP 02/21/2004 5 Claiming $6,900 Cruiseship 3 N/A
TP 02/21/2004 6 Claiming $11,000 Isle Be True 1 N/A
TP 02/21/2004 7 Maiden Special Weight $29,600 Accept for Ryan 3 N/A
TP 02/21/2004 9 Dust Commander Stakes $50,000 Ask the Lord 1 N/A
TP 02/21/2004 10 Valdale Stakes $50,000 Tarrah Trick 3 N/A
TP 02/21/2004 11 Claiming $12,100 She Be Fapiano 1 N/A
TP 02/21/2004 12 Maiden Claiming $8,200 The Night Ridder 2 N/A
TP 02/22/2004 2 Claiming $8,000 Fiery Six 8 N/A
TP 02/22/2004 3 Claiming $6,900 My Two Sons 2 N/A
TP 02/22/2004 4 Maiden Special Weight $29,600 Miss Wellspring 1 N/A
TP 02/22/2004 5 Claiming $8,500 Mr. Bartlett 3 N/A
TP 02/22/2004 6 Maiden Special Weight $29,600 I'mthedeal 4 N/A
TP 02/22/2004 7 Allowance $31,300 Desert Monarch 5 N/A
TP 02/22/2004 8 Claiming $12,100 R B Women 1 N/A
TP 02/22/2004 9 Allowance $35,100 Clayton's Trick 1 N/A
TP 02/22/2004 10 Claiming $8,000 Super Bowl 2 N/A
TP 02/25/2004 1 Maiden Claiming $11,000 Edelweiss Song 3 N/A
TP 02/25/2004 2 Claiming $9,000 Matty Fine 1 N/A
TP 02/25/2004 3 Maiden Claiming $8,200 Miss Mulie 1 N/A
TP 02/25/2004 5 Claiming $9,000 Nippert 6 N/A
TP 02/25/2004 6 Claiming $13,200 Miss Barner 5 N/A
TP 02/25/2004 7 Claiming $10,000 Sir Traver 4 N/A
TP 02/25/2004 8 Claiming $15,300 Allie's Hope 5 N/A
TP 02/25/2004 9 Allowance $37,000 Junket 3 N/A
TP 02/25/2004 10 Claiming $9,000 L'Egal Ethics 3 N/A
TP 02/26/2004 2 Claiming $8,000 Sir Cassanova 1 N/A
TP 02/26/2004 3 Maiden Claiming $11,000 No Dress Code 2 N/A
TP 02/26/2004 5 Claiming $6,900 A Table for Three 2 N/A
TP 02/26/2004 6 Maiden Claiming $11,000 Cynthia's Anna 8 N/A
TP 02/26/2004 8 Maiden Special Weight $29,600 Enhanced Edition 3 N/A
TP 02/26/2004 9 Claiming $11,000 Okie I Am 4 N/A
TP 02/26/2004 10 Maiden Claiming $8,200 Distante 5 N/A
TP 02/27/2004 1 Maiden Claiming $8,200 Baby Ankles 3 N/A
TP 02/27/2004 4 Maiden Special Weight $29,600 Fastette 1 N/A
TP 02/27/2004 5 Claiming $9,000 Gato Montanes 6 N/A
TP 02/27/2004 6 Maiden Claiming $8,200 Gold by Design 1 N/A
TP 02/27/2004 8 Maiden Special Weight $29,600 Heroic Deed 1 N/A
TP 02/27/2004 9 Starter Allowance $11,000 Red Rage 5 N/A
TP 02/27/2004 10 Allowance $31,300 Monastic 8 N/A
TP 02/27/2004 11 Maiden Special Weight $29,600 Southern Snuggle 2 N/A
TP 02/28/2004 1 Claiming $12,900 Regale 1 N/A
TP 02/28/2004 3 Claiming $8,000 Uncle Freddie 6 N/A
TP 02/28/2004 4 Claiming $12,100 Perfect Justice 1 N/A
TP 02/28/2004 6 Claiming $8,000 Mr Spark 1 N/A
TP 02/28/2004 8 Claiming $15,300 Sudden Glory 4 N/A
TP 02/28/2004 9 Allowance $33,100 Stash the Boots 3 N/A
TP 02/28/2004 10 John Battaglia Memorial Stakes $100,000 Silver Minister 1 N/A
TP 02/28/2004 11 Maiden Claiming $15,300 Prison of Love 1 N/A
TP 02/28/2004 12 Claiming $6,900 Sylvan Approval 1 N/A
TP 02/29/2004 1 Maiden Claiming $8,200 Wade and Tay 2 N/A
TP 02/29/2004 4 Allowance Optional Claiming $33,100 Enjoy the Journey 3 N/A
TP 02/29/2004 5 Claiming $14,200 Lonesomenumberone 5 N/A
TP 02/29/2004 6 Maiden Special Weight $29,600 The Wrong Face 1 N/A
TP 02/29/2004 7 Allowance $31,300 Lost in Transit 3 N/A
TP 02/29/2004 8 Allowance $31,300 Double Halo 3 N/A
TP 02/29/2004 9 Allowance $39,600 Fickle Factor 4 N/A
TP 03/03/2004 1 Maiden Claiming $11,000 Chad's Boy R C T 3 N/A
TP 03/03/2004 2 Claiming $6,900 Morning Domingo 1 N/A
TP 03/03/2004 3 Claiming $8,000 Clever Deputy 4 N/A
TP 03/03/2004 5 Claiming $9,000 Knucklehead 6 N/A
TP 03/03/2004 7 Claiming $22,000 Ride 'Em Rags 4 N/A
TP 03/03/2004 9 Allowance $33,100 Rubiano Lad 3 N/A
TP 03/03/2004 10 Claiming $8,000 Satin Creek 1 N/A
TP 03/04/2004 2 Claiming $6,900 Brookstreet 7 N/A
TP 03/04/2004 3 Claiming $12,100 Neiman 3 N/A
TP 03/04/2004 4 Maiden Claiming $13,200 Desert Pines 1 N/A
TP 03/04/2004 5 Claiming $8,000 Ann's Emblem 1 N/A
TP 03/04/2004 6 Maiden Special Weight $29,600 Deputy Director 1 N/A
TP 03/04/2004 7 Claiming $12,100 Musical Beauty 1 N/A
TP 03/04/2004 8 Claiming $10,000 Friendly Cop 2 N/A
TP 03/04/2004 9 Starter Allowance $11,000 Dr. Sal 2 N/A
TP 03/04/2004 10 Maiden Claiming $6,600 Cobra Squeeze 4 N/A
TP 03/05/2004 3 Maiden Claiming $8,200 Wild Willys Philly 2 N/A
TP 03/06/2004 1 Claiming $8,500 Command Power 2 N/A
GP 03/08/2004 7 Claiming $14,000 Kentucky Woman 4 N/A
GP 03/08/2004 9 Maiden Claiming $14,000 Ah Boo 2 N/A
TP 03/10/2004 2 Claiming $8,000 Sir Cassanova 4 N/A
TP 03/10/2004 3 Maiden Claiming $12,000 French Account 1 N/A
TP 03/10/2004 4 Claiming $11,000 Cindy's Hobby 4 N/A
TP 03/10/2004 6 Maiden Claiming $13,200 U B Ours 5 N/A
TP 03/10/2004 7 Claiming $19,800 Junket 2 N/A
TP 03/10/2004 8 Allowance $33,800 Sonny's Legacy 1 N/A
TP 03/10/2004 9 Allowance $40,000 Clayton's Trick 2 N/A
TP 03/10/2004 10 Claiming $8,000 White Flag 5 N/A
TP 03/11/2004 1 Maiden Claiming $8,200 Golden Affirmation 3 N/A
TP 03/11/2004 2 Claiming $6,900 Gato Montanes 5 N/A
TP 03/11/2004 3 Claiming $8,000 Chuck Yeager 4 N/A
TP 03/11/2004 4 Maiden Special Weight $32,000 Sansa 1 N/A
TP 03/11/2004 5 Claiming $8,500 Prince Joe (ARG) 1 N/A
TP 03/11/2004 7 Maiden Claiming $15,300 Banker's Wife 9 N/A
TP 03/11/2004 8 Claiming $8,200 Brandenburg Gate 7 N/A
TP 03/11/2004 9 Claiming $11,000 He Be Irish 6 N/A
TP 03/11/2004 10 Claiming $6,900 Secret Agent Tom 7 N/A
TP 03/12/2004 1 Claiming $9,000 Untamed 1 N/A
TP 03/12/2004 2 Maiden Claiming $11,000 Silver Mark 1 N/A
TP 03/12/2004 3 Claiming $6,900 Silver Skip 1 N/A
TP 03/12/2004 4 Claiming $10,000 Sir Traver 3 N/A
TP 03/12/2004 5 Claiming $8,000 Proper Paradise 1 N/A
TP 03/12/2004 6 Claiming $15,300 Still Be Smokin' 2 N/A
TP 03/12/2004 7 Maiden Special Weight $32,000 Thompson Gee 1 N/A
TP 03/12/2004 8 Allowance $33,800 Set to Sparkle 1 N/A
TP 03/12/2004 9 Wintergreen Stakes $50,000 Glitter Act 4 N/A
TP 03/12/2004 10 Claiming $15,300 Great Return 1 N/A
TP 03/12/2004 11 Claiming $6,900 Cruiseship 3 N/A
TP 03/13/2004 1 Maiden Claiming $8,200 Wade and Tay 5 N/A
TP 03/13/2004 2 Claiming $9,000 Clayton's Cat 5 N/A
TP 03/13/2004 3 Claiming $8,000 Exile Lark (BRZ) 1 N/A
TP 03/13/2004 4 Claiming $11,000 Okie I Am 7 N/A
TP 03/13/2004 5 Maiden Claiming $11,000 Will Nine 4 N/A
TP 03/13/2004 6 Allowance Optional Claiming $35,800 Enjoy the Journey 2 N/A
TP 03/13/2004 7 Claiming $12,100 So Long Charlie 2 N/A
TP 03/13/2004 8 Maiden Special Weight $32,000 Saramar 2 N/A
TP 03/13/2004 9 Allowance $33,800 Lost in Transit 1 N/A
TP 03/13/2004 10 Tejano Run Stakes $50,000 Ask the Lord 1 N/A
TP 03/13/2004 11 Claiming $12,100 Glitterwan 1 N/A
TP 03/13/2004 12 Claiming $9,000 Bob Jo 1 N/A
TP 03/14/2004 1 Claiming $8,200 Sylvan Approval 1 N/A
TP 03/14/2004 2 Maiden Claiming $8,200 Trick Shot Gal 2 N/A
TP 03/14/2004 3 Maiden Claiming $8,200 She's Flying High 1 N/A
TP 03/14/2004 4 Claiming $6,900 Unusual Sonata 2 N/A
TP 03/14/2004 5 Claiming $8,000 For Bailey's Sake 6 N/A
TP 03/14/2004 6 Claiming $22,000 Unificada (BRZ) 5 N/A
TP 03/14/2004 8 Allowance $33,800 Emily's Mark 2 N/A
TP 03/14/2004 9 Allowance $33,800 Miss Wellspring 1 N/A
TP 03/14/2004 10 Maiden Claiming $6,600 Baby Ankles 1 N/A
TP 03/17/2004 1 Maiden Claiming $8,200 Edelweiss Song 4 N/A
TP 03/17/2004 2 Maiden Claiming $8,200 Emma's Wish 2 N/A
TP 03/17/2004 3 Claiming $12,100 Queen of the Zone 3 N/A
TP 03/17/2004 4 Claiming $10,000 Bannerstone 3 N/A
TP 03/17/2004 5 Maiden Claiming $15,300 Landofthebrave 9 N/A
TP 03/17/2004 6 Claiming $8,000 Cold Chillin 2 N/A
TP 03/17/2004 7 Maiden Special Weight $32,000 Pleasant Emily 1 N/A
TP 03/17/2004 8 Claiming $12,100 Kathy Lynn 2 N/A
TP 03/17/2004 9 Allowance $35,800 Embon 2 N/A
TP 03/17/2004 10 Claiming $6,900 Bold Corsair 2 N/A
TP 03/18/2004 3 Claiming $6,900 Morning Domingo 3 N/A
TP 03/18/2004 4 Claiming $6,900 My Two Sons 2 N/A
TP 03/18/2004 5 Claiming $8,000 Ridge Runner (GB) 1 N/A
TP 03/18/2004 6 Maiden Claiming $11,000 Maria's Halo 9 N/A
TP 03/18/2004 7 Claiming $9,000 Slew Rouge 3 N/A
TP 03/18/2004 8 Claiming $11,000 Gold Fabuleux 7 N/A
TP 03/19/2004 1 Maiden Claiming $8,200 Wild Willys Philly 1 N/A
TP 03/19/2004 4 Claiming $6,900 Only Kings 2 N/A
TP 03/19/2004 5 Maiden Claiming $13,200 Carolina Lily 1 N/A
TP 03/19/2004 7 Claiming $22,000 Ride 'Em Rags 5 N/A
TP 03/19/2004 8 Maiden Special Weight $32,000 Native Bull 1 N/A
TP 03/19/2004 9 Claiming $8,500 Mr Spark 8 N/A
TP 03/19/2004 10 Allowance $35,800 Hush U Dreamer 4 N/A
TP 03/19/2004 12 Maiden Claiming $11,000 Desert Amor 5 N/A
TP 03/20/2004 1 Maiden Special Weight $32,000 Harderthanpride 1 N/A
TP 03/20/2004 2 Maiden Special Weight $32,000 River Drive 3 N/A
TP 03/20/2004 3 Allowance $33,800 Boston Song 4 N/A
TP 03/20/2004 4 Maiden Special Weight $32,000 Sierra Crossing 2 N/A
TP 03/20/2004 5 Allowance $33,800 Pass Play 5 N/A
TP 03/20/2004 6 Queen Stakes $50,000 Saratoga Humor 5 N/A
TP 03/20/2004 7 Rushaway Stakes $100,000 Pies Prospect 5 N/A
TP 03/20/2004 8 Lane's End Stakes (Gr. 2) $500,000 Silver Minister 11 N/A
TP 03/20/2004 9 Bourbonette Breeders' Cup Stakes $150,000 Cat's Account 4 N/A
TP 03/20/2004 10 Hansel Stakes $50,000 Man of Conquest 6 N/A
TP 03/20/2004 11 Claiming $12,100 Musical Beauty 5 N/A
TP 03/20/2004 12 Claiming $10,000 Exile Lark (BRZ) 5 N/A
TP 03/21/2004 1 Claiming $8,000 Celestial Sea 3 N/A
TP 03/21/2004 2 Maiden Claiming $8,200 Son of Syn 5 N/A
TP 03/21/2004 3 Maiden Claiming $8,200 Budget Breaker 2 N/A
TP 03/21/2004 5 Claiming $8,000 Sir Cassanova 3 N/A
TP 03/21/2004 6 Claiming $8,000 Intertwining 8 N/A
TP 03/21/2004 7 Maiden Special Weight $32,000 Enhanced Edition 1 N/A
TP 03/21/2004 8 Claiming $14,200 Desert Monarch 1 N/A
TP 03/21/2004 9 Allowance $33,800 Grades Gold 2 N/A
TP 03/21/2004 10 Claiming $6,900 Dare to Rum 9 N/A
TP 03/24/2004 1 Maiden Claiming $8,200 Jolly Ol' Nick 3 N/A
TP 03/24/2004 2 Claiming $6,900 Seewhatimsaying 7 N/A
TP 03/24/2004 3 Maiden Claiming $11,000 Federale 1 N/A
TP 03/24/2004 5 Claiming $12,100 Perfect Justice 1 N/A
TP 03/24/2004 6 Claiming $11,000 Okie I Am 4 N/A
TP 03/24/2004 7 Maiden Claiming $15,300 Catboat 2 N/A
TP 03/24/2004 8 Claiming $13,200 Bringem Jung 5 N/A
TP 03/24/2004 9 Allowance $35,800 Go Jeanaie Go 2 N/A
TP 03/24/2004 10 Maiden Claiming $8,200 Menasha 1 N/A
TP 03/25/2004 1 Maiden Claiming $11,000 Crafty Dan 3 N/A
TP 03/25/2004 2 Maiden Claiming $11,000 Real Monarch 3 N/A
TP 03/25/2004 3 Claiming $9,000 Stormline 1 N/A
TP 03/25/2004 4 Claiming $15,300 Still Be Smokin' 1 N/A
TP 03/25/2004 5 Claiming $9,000 Lil' Nickii 1 N/A
TP 03/25/2004 6 Claiming $12,100 Silver Mark 3 N/A
TP 03/25/2004 7 Maiden Claiming $13,200 Prayer Warrior 2 N/A
TP 03/25/2004 8 Claiming $14,200 Johnnyou 1 N/A
TP 03/25/2004 9 Claiming $22,000 Smiling Sky 1 N/A
TP 03/26/2004 1 Claiming $12,100 Lady Anna J 1 N/A
TP 03/26/2004 2 Maiden Claiming $6,600 Cobra Squeeze 3 N/A
TP 03/26/2004 3 Claiming $8,000 Red Cielo 1 N/A
TP 03/26/2004 4 Claiming $14,200 Hayes Road 1 N/A
TP 03/26/2004 5 Claiming $6,900 Valentina Rose 3 N/A
TP 03/26/2004 6 Claiming $11,000 Isle Be True 3 N/A
TP 03/26/2004 7 Maiden Claiming $13,200 No Fishing 4 N/A
TP 03/26/2004 8 Starter Allowance $11,000 Sonny's Legacy 6 N/A
TP 03/26/2004 9 Claiming $19,800 Lucky Baldwin 4 N/A
TP 03/26/2004 10 Allowance $33,800 Regale 2 N/A
TP 03/26/2004 11 Claiming $6,900 Mystic Sword 1 N/A
TP 03/26/2004 12 Claiming $8,000 Nita's Notebook 2 N/A
TP 03/27/2004 1 Maiden Claiming $8,200 Emma's Wish 4 N/A
TP 03/27/2004 2 Claiming $6,900 Untamed 7 N/A
TP 03/27/2004 3 Maiden Special Weight $32,000 Show Me the Roses 5 N/A
TP 03/27/2004 4 Claiming $8,000 Gold Commander One 1 N/A
TP 03/27/2004 6 Claiming $8,500 Stetson Cat 1 N/A
TP 03/27/2004 7 Maiden Special Weight $32,000 Mamie Mom 5 N/A
TP 03/27/2004 9 Allowance $33,800 Heroic Deed 3 N/A
TP 03/27/2004 10 Fairway Fun Stakes $50,000 Small Promises 4 N/A
TP 03/27/2004 11 Maiden Claiming $8,200 Tribute to Gold 1 N/A
TP 03/27/2004 12 Claiming $8,000 Focus On Marty 2 N/A
TP 03/28/2004 2 Claiming $6,900 Unusual Sonata 2 N/A
TP 03/28/2004 3 Claiming $9,000 Buckner Bert 6 N/A
TP 03/28/2004 4 Claiming $12,100 Just a Kitty 1 N/A
TP 03/28/2004 5 Claiming $10,000 Overly 2 N/A
TP 03/28/2004 6 Claiming $13,200 Red Rage 5 N/A
TP 03/28/2004 7 Allowance $33,800 Emily's Mark 4 N/A
TP 03/28/2004 8 Claiming $15,300 O'Lee's Story 1 N/A
TP 03/28/2004 9 Allowance Optional Claiming $35,800 Stash the Boots 2 N/A
TP 03/28/2004 10 Maiden Claiming $8,200 Third Turn Angel 5 N/A
TP 03/31/2004 1 Claiming $9,000 Gold by Design 4 N/A
TP 03/31/2004 2 Maiden Claiming $6,600 Bingobear 2 N/A
TP 03/31/2004 7 Maiden Special Weight $32,000 Seyalateralligator 1 N/A
TP 03/31/2004 8 Claiming $19,800 Savannah Hanna 1 N/A
TP 03/31/2004 9 Claiming $14,200 R B Women 5 N/A
TP 03/31/2004 10 Allowance $33,800 Rich Find 1 N/A
TP 03/31/2004 11 Claiming $8,000 Heshimu 5 N/A
TP 03/31/2004 12 Claiming $8,000 Casimir (IRE) 2 N/A
TP 04/01/2004 1 Maiden Claiming $8,200 Rise and Smile 9 N/A
TP 04/01/2004 2 Maiden Claiming $11,000 Drill 2 N/A
TP 04/01/2004 3 Claiming $6,900 James Madison 4 N/A
TP 04/01/2004 4 Maiden Claiming $13,200 Callinthetroops 1 N/A
TP 04/01/2004 5 Claiming $8,500 Broad Creek 1 N/A
TP 04/01/2004 6 Maiden Special Weight $32,000 Sierra Crossing 1 N/A
TP 04/01/2004 8 Maiden Special Weight $32,000 Asfastasshecannow 2 N/A
TP 04/01/2004 9 Claiming $22,000 Unificada (BRZ) 4 N/A
TP 04/01/2004 10 Allowance Optional Claiming $35,800 Rubiano Lad 5 N/A
TP 04/01/2004 11 Claiming $8,000 Bassam 1 N/A
TP 04/01/2004 12 Maiden Claiming $8,200 Major Crisis 5 N/A
KEE 04/02/2004 1 Claiming $15,000 Ready for Glory 3 N/A
KEE 04/02/2004 2 Maiden Special Weight $50,000 Wind Shine 5 N/A
KEE 04/02/2004 3 Claiming $15,000 Fusty 3 N/A
KEE 04/02/2004 4 Maiden Special Weight $50,000 Elusive Knight 10 N/A
KEE 04/02/2004 5 Allowance $54,000 Deputy Director 7 N/A
KEE 04/02/2004 6 Allowance $54,000 Sweepit 4 N/A
KEE 04/02/2004 7 Allowance $58,000 Orphan Brigade 4 N/A
KEE 04/02/2004 8 Allowance $62,000 Conman Cunningham 11 N/A
KEE 04/02/2004 9 Transylvania Stakes (Gr. 3) $100,000 Mr. J. T. L. 2 N/A
KEE 04/02/2004 10 Maiden Special Weight $50,000 Catch the Glory 5 N/A
HAW 04/03/2004 4 Meafara Stakes $40,000 Prevalent 1 N/A
HAW 04/03/2004 7 Illinois Derby (Gr. 2) $500,000 Suave 3 N/A
HAW 04/03/2004 8 Lost Code Breeders' Cup Stakes $100,000 Danieltown 2 N/A
KEE 04/04/2004 1 Claiming $15,000 Superpower (ARG) 7 N/A
KEE 04/04/2004 2 Maiden Special Weight $50,000 No Cash 4 N/A
KEE 04/04/2004 3 Maiden Special Weight $50,000 Hannel 6 N/A
KEE 04/04/2004 5 Maiden Special Weight $50,000 Dancemaker 5 N/A
KEE 04/04/2004 6 Allowance $54,000 Base Stealer 3 N/A
KEE 04/04/2004 7 Allowance $54,000 Boston Song 7 N/A
KEE 04/04/2004 9 Allowance $54,000 Shake the Bank 1 N/A
KEE 04/07/2004 1 Claiming $20,000 Hunter Cat 8 N/A
KEE 04/07/2004 3 Claiming $32,000 Go Jeanaie Go 4 N/A
KEE 04/07/2004 4 Maiden Special Weight $50,000 Ritzy Go Go 10 N/A
KEE 04/07/2004 5 Claiming $42,000 Ide Be Spencers 7 N/A
KEE 04/07/2004 6 Allowance $54,000 Risky Trick 2 N/A
KEE 04/07/2004 7 Allowance $58,000 Enjoy the Journey 9 N/A
KEE 04/07/2004 8 Vinery Madison Stakes $175,000 Virgin Voyage 4 N/A
KEE 04/08/2004 1 Claiming $15,000 Party Shu 3 N/A
KEE 04/08/2004 3 Claiming $28,000 Better Road 6 N/A
KEE 04/08/2004 5 Allowance $54,000 Pleasant Emily 6 N/A
KEE 04/08/2004 6 Allowance $54,000 Accord 6 N/A
KEE 04/09/2004 1 Maiden Claiming $21,000 Miss Ooh La La 3 N/A
KEE 04/09/2004 2 Claiming $20,000 Bengalesa (ARG) 3 N/A
KEE 04/09/2004 6 Allowance $54,000 Sir Shackleton 1 N/A
KEE 04/09/2004 7 Allowance $62,000 Rumsonontheriver 7 N/A
KEE 04/09/2004 10 Allowance $54,000 Base Stealer 4 N/A
KEE 04/10/2004 1 Allowance $54,000 Inaugural Address 3 N/A
KEE 04/10/2004 2 Claiming $15,000 Ann's Emblem 4 N/A
KEE 04/10/2004 4 Maiden Special Weight $50,000 My Very Own Muggle 8 N/A
KEE 04/10/2004 6 Maiden Special Weight $50,000 Scripture 1 N/A
KEE 04/10/2004 7 Shakertown Stakes (Gr. 3) $100,000 Doc D 10 N/A
KEE 04/10/2004 8 Allowance $54,000 Western Hussy 10 N/A
KEE 04/10/2004 10 Allowance $62,000 Alchemist 6 N/A
KEE 04/14/2004 1 Claiming $20,000 Code Ack Moment 4 N/A
KEE 04/14/2004 2 Maiden Special Weight $50,000 Dependability 5 N/A
KEE 04/14/2004 4 Maiden Special Weight $50,000 What to Wear 6 N/A
KEE 04/14/2004 5 Allowance $54,000 Tricky Gin 4 N/A
KEE 04/14/2004 6 Maiden Special Weight $50,000 Two Hearts 3 N/A
KEE 04/14/2004 7 Allowance $54,000 Enhanced Edition 7 N/A
KEE 04/14/2004 8 Appalachian Stakes $100,000 Western Ransom 2 N/A
KEE 04/14/2004 9 Starter Allowance $15,000 Besttobeabachelor 9 N/A
KEE 04/15/2004 1 Maiden Claiming $21,000 Goin' Down Town 4 N/A
KEE 04/15/2004 3 Claiming $28,000 Savannah Hanna 8 N/A
KEE 04/15/2004 5 Maiden Special Weight $50,000 American Racer 5 N/A
KEE 04/15/2004 6 Claiming $33,000 A Call for Gertie 3 N/A
KEE 04/15/2004 7 Allowance $54,000 Harderthanpride 6 N/A
KEE 04/15/2004 8 Forerunner Stakes $100,000 Mr. J. T. L. 6 N/A
KEE 04/15/2004 9 Claiming $15,000 Cum Laude 9 N/A
KEE 04/16/2004 1 Maiden Claiming $21,000 Czar of Cozzene 3 N/A
KEE 04/16/2004 2 Allowance $67,000 Premier Performer 1 N/A
KEE 04/16/2004 3 Claiming $20,000 Madeleine's Jade 7 N/A
KEE 04/16/2004 5 Maiden Special Weight $50,000 Seafree 3 N/A
KEE 04/16/2004 7 Allowance $62,000 Perfect Ride 1 N/A
KEE 04/16/2004 10 Maiden Special Weight $50,000 Lucy Whitesocks 3 N/A
KEE 04/17/2004 1 Claiming $15,000 Uncle Freddie 4 N/A
KEE 04/17/2004 2 Maiden Special Weight $50,000 Cafe Flore 1 N/A
KEE 04/17/2004 3 Claiming $15,000 Dilechance 1 N/A
KEE 04/17/2004 6 Maiden Special Weight $50,000 Revolver Six 11 N/A
KEE 04/17/2004 7 Stravinsky Stakes $75,000 Speedy Sonata 4 N/A
KEE 04/17/2004 8 Allowance $58,000 Embon 8 N/A
KEE 04/17/2004 9 Coolmore Lexington Stakes (Gr. 2) $325,000 Boomzeeboom 14 N/A
KEE 04/18/2004 3 Maiden Special Weight $50,000 Visionary 4 N/A
KEE 04/18/2004 4 Claiming $28,000 Ferrazzi 2 N/A
KEE 04/18/2004 8 Jenny Wiley Stakes (Gr. 3) $100,000 Virgin Voyage 8 N/A
KEE 04/21/2004 1 Maiden Special Weight $50,000 Mystery Flick 9 N/A
KEE 04/21/2004 2 Claiming $28,000 Dehere Blues 4 N/A
KEE 04/21/2004 3 Maiden Special Weight $50,000 French Favor 10 N/A
KEE 04/21/2004 4 Allowance $54,000 Native Bull 4 N/A
KEE 04/21/2004 7 Allowance $65,000 Storm Commander 2 N/A
KEE 04/21/2004 9 Allowance $58,000 Virginia Flash 3 N/A
KEE 04/22/2004 3 Claiming $32,000 All American Blue 4 N/A
KEE 04/22/2004 5 Allowance $58,000 Request Denied 2 N/A
KEE 04/22/2004 6 Maiden Special Weight $50,000 Enemy Mine 6 N/A
KEE 04/23/2004 2 Claiming $15,000 Isle Be True 2 N/A
KEE 04/23/2004 3 Maiden Special Weight $50,000 Televangelist 2 N/A
KEE 04/23/2004 4 Allowance $58,000 Evil Eye Aly 6 N/A
KEE 04/23/2004 5 Maiden Special Weight $50,000 Thelionshare 5 N/A
KEE 04/23/2004 7 Maiden Special Weight $50,000 Storm Legacy 2 N/A
KEE 04/23/2004 10 Allowance $62,000 Mr. Krisley 5 N/A
CD 04/24/2004 1 Claiming $13,000 Ann's Emblem 5 N/A
CD 04/24/2004 2 Claiming $31,000 Lost in Transit 5 N/A
CD 04/24/2004 3 Claiming $23,000 Galileo's Star 7 N/A
CD 04/24/2004 4 Allowance $63,000 Golden Marlin 3 N/A
CD 04/24/2004 5 Maiden Special Weight $45,400 Asfastasshecannow 12 N/A
CD 04/24/2004 7 Allowance $51,700 Man of Conquest 5 N/A
CD 04/24/2004 8 Allowance $52,900 Shake the Bank 5 N/A
CD 04/24/2004 9 Derby Trial Stakes (Gr. 3) $100,000 Sir Shackleton 1 N/A
CD 04/24/2004 10 Maiden Special Weight $45,400 Kastria 11 N/A
CD 04/25/2004 2 Claiming $23,000 Johnnyou 3 N/A
CD 04/25/2004 3 Maiden Claiming $15,000 Atticus' Goddess 1 N/A
CD 04/25/2004 4 Claiming $16,000 Black Heart 1 N/A
CD 04/25/2004 5 Claiming $13,000 Mystic Sword 6 N/A
CD 04/25/2004 6 Maiden Special Weight $45,400 Go Lionel Go 1 N/A
CD 04/25/2004 7 Allowance $49,100 Accord 2 N/A
CD 04/25/2004 8 Starter Allowance $20,000 Generous Rosi (GB) 4 N/A
CD 04/25/2004 9 Allowance $52,900 Miss Goosebumps 2 N/A
CD 04/25/2004 10 Claiming $23,000 Menasha 3 N/A
CD 04/27/2004 1 Claiming $17,000 Emporia 4 N/A
CD 04/27/2004 2 Starter Allowance $20,000 Stormline 6 N/A
CD 04/27/2004 3 Maiden Claiming $15,000 Full Tank 6 N/A
CD 04/27/2004 4 Claiming $16,000 Overly 5 N/A
CD 04/27/2004 6 Claiming $13,000 Wild Willys Philly 3 N/A
CD 04/27/2004 7 Claiming $19,000 Land Grab 1 N/A
CD 04/27/2004 9 Allowance $47,900 First Approval 5 N/A
CD 04/27/2004 10 Claiming $23,000 Good as Silver 1 N/A
CD 04/28/2004 1 Maiden Claiming $20,000 Lil Red 5 N/A
CD 04/28/2004 2 Claiming $22,000 October Optimist 2 N/A
CD 04/28/2004 4 Claiming $36,000 Hush U Dreamer 1 N/A
CD 04/28/2004 5 Maiden Claiming $20,000 No Fishing 7 N/A
CD 04/28/2004 6 Claiming $13,000 My Man Gus 9 N/A
CD 04/28/2004 7 Claiming $19,000 Lickety Slick 9 N/A
CD 04/28/2004 8 Claiming $26,000 Raise the Stakes 2 N/A
CD 04/28/2004 9 Allowance Optional Claiming $55,500 Mighty David 7 N/A
CD 04/28/2004 10 Maiden Claiming $24,000 I Love the Organ 4 N/A
CD 04/29/2004 2 Claiming $36,000 Stash the Boots 6 N/A
CD 04/29/2004 3 Maiden Special Weight $45,400 Wind Shine 7 N/A
CD 04/29/2004 4 Allowance $49,100 Inaugural Address 5 N/A
CD 04/29/2004 5 Maiden Claiming $24,000 Roger Wilco 1 N/A
CD 04/29/2004 6 Allowance $64,300 Camacho (NZ) 5 N/A
CD 04/29/2004 9 La Troienne Stakes (Gr. 3) $100,000 Pick of the Pack 4 N/A
CD 04/30/2004 2 Allowance $49,100 Harderthanpride 6 N/A
CD 04/30/2004 3 Maiden Special Weight $45,400 Kristy Beethoven 7 N/A
CD 04/30/2004 4 Allowance $47,900 Scripture 9 N/A
CD 05/01/2004 2 Maiden Special Weight $45,400 Rosinsky 8 N/A
CD 05/01/2004 3 Allowance $51,700 Slick as Slew 3 N/A
CD 05/01/2004 7 Argent Mortgage Distaff Turf Mile Stakes (Gr. 3) $100,000 Darby's Charm 10 N/A
CD 05/01/2004 11 Allowance $66,800 Small Promises 5 N/A
CD 05/01/2004 12 Maiden Special Weight $46,600 Silver Warrant 1 N/A
IND 05/01/2004 8 Shelby County Stakes $40,000 Ellens Lucky Star 1 N/A
CD 05/05/2004 1 Maiden Claiming $19,000 Newport Trick 3 N/A
CD 05/05/2004 2 Claiming $15,000 Christmas Table 5 N/A
CD 05/05/2004 3 Maiden Claiming $15,000 Real Monarch 1 N/A
CD 05/05/2004 5 Maiden Claiming $16,000 Reformer 4 N/A
CD 05/05/2004 7 Starter Allowance $31,000 Mail Call 1 N/A
CD 05/05/2004 8 Claiming $36,000 Orphan Brigade 3 N/A
CD 05/05/2004 9 Allowance Optional Claiming $56,700 Clear Destiny 4 N/A
CD 05/05/2004 10 Maiden Special Weight $46,600 Ideal Scenario 5 N/A
CD 05/06/2004 1 Claiming $14,000 Musical Beauty 7 N/A
CD 05/06/2004 2 Maiden Claiming $19,000 Fire Ant 3 N/A
CD 05/06/2004 3 Claiming $21,000 Alliesunrun 2 N/A
CD 05/06/2004 4 Claiming $14,000 Prescott Road 6 N/A
CD 05/06/2004 6 Claiming $13,000 Slew Rouge 3 N/A
CD 05/06/2004 7 Maiden Special Weight $46,600 Pulpit's Edge 4 N/A
CD 05/06/2004 8 Claiming $18,000 Kingstown 11 N/A
CD 05/06/2004 9 Allowance Optional Claiming $56,700 Two Dot Slew 1 N/A
CD 05/06/2004 10 Maiden Claiming $19,000 Kel Kel 5 N/A
CD 05/07/2004 1 Claiming $36,000 Tarrah Trick 5 N/A
CD 05/07/2004 4 Maiden Special Weight $46,600 Joyjoyjoy 3 N/A
CD 05/07/2004 5 Claiming $14,000 Dig This Hoss 3 N/A
CD 05/07/2004 6 Maiden Claiming $16,000 Cat Music 1 N/A
CD 05/07/2004 7 Claiming $14,000 Overly 9 N/A
CD 05/07/2004 8 Claiming $24,000 Al Saqaar 1 N/A
CD 05/07/2004 9 Allowance $49,100 More Daylight 2 N/A
CD 05/07/2004 10 Maiden Claiming $19,000 Crown Myst 3 N/A
CD 05/08/2004 2 Claiming $31,000 Go Jeanaie Go 3 N/A
CD 05/08/2004 5 Claiming $18,000 Turn to Zarb 2 N/A
CD 05/08/2004 6 Maiden Special Weight $45,400 Our Josephina 1 N/A
CD 05/08/2004 7 Allowance $49,100 Jamian 4 N/A
CD 05/08/2004 8 Allowance Optional Claiming $56,700 Mr. Krisley 3 N/A
CD 05/08/2004 10 Allowance $49,100 Munchkin 8 N/A
CD 05/09/2004 1 Starter Allowance $28,000 Junket 3 N/A
CD 05/09/2004 2 Maiden Special Weight $45,400 Subboo 7 N/A
CD 05/09/2004 3 Claiming $31,000 Dia Alegre (CHI) 3 N/A
CD 05/09/2004 4 Claiming $44,000 Cozy One 5 N/A
CD 05/09/2004 5 Claiming $24,000 French Account 5 N/A
CD 05/09/2004 6 Claiming $27,000 Sonny's Legacy 3 N/A
CD 05/09/2004 7 Allowance $49,100 Skip Vigorously 2 N/A
CD 05/09/2004 8 Claiming $40,000 Stone Age 7 N/A
CD 05/12/2004 1 Maiden Claiming $24,000 Bid Made 4 N/A
CD 05/12/2004 2 Claiming $16,000 Edgewater Savior 4 N/A
CD 05/12/2004 3 Allowance $63,000 Storm Commander 4 N/A
CD 05/12/2004 4 Claiming $13,000 Western Hussy 9 N/A
CD 05/12/2004 5 Maiden Claiming $15,000 Soaring 2 N/A
CD 05/12/2004 6 Starter Allowance $19,000 October Optimist 6 N/A
CD 05/12/2004 7 Allowance $47,900 Erinsouthernman 2 N/A
CD 05/12/2004 8 Claiming $44,000 Rahy's Secret 6 N/A
CD 05/12/2004 10 Claiming $37,000 Camacho (NZ) 2 N/A
CD 05/13/2004 1 Claiming $13,000 Lost Wine 7 N/A
CD 05/13/2004 2 Starter Allowance $18,000 Mount Everest 6 N/A
CD 05/13/2004 3 Maiden Claiming $15,000 Smithtown Road 5 N/A
CD 05/13/2004 4 Claiming $16,000 Perfect Justice 2 N/A
CD 05/13/2004 5 Maiden Claiming $15,000 Algerias Queen 2 N/A
CD 05/13/2004 6 Claiming $13,000 What Next Bert 2 N/A
CD 05/13/2004 7 Starter Allowance $31,000 Still As Sweet (IRE) 6 N/A
CD 05/13/2004 8 Claiming $30,000 Good as Silver 1 N/A
CD 05/13/2004 9 Allowance $52,900 Shake the Bank 2 N/A
CD 05/13/2004 10 Maiden Claiming $20,000 Hot Chipotle 7 N/A
CD 05/14/2004 1 Maiden Claiming $24,000 Crazy Grace 1 N/A
CD 05/14/2004 2 Claiming $19,000 Knob Hill 6 N/A
CD 05/14/2004 3 Starter Allowance $19,000 Generous Rosi (GB) 1 N/A
CD 05/14/2004 4 Claiming $23,000 Pass Play 1 N/A
CD 05/14/2004 5 Claiming $17,000 Racing Ruby 9 N/A
CD 05/14/2004 6 Maiden Claiming $20,000 Good Humor Man 2 N/A
CD 05/14/2004 7 Claiming $13,000 Luca Laabity 3 N/A
CD 05/14/2004 8 Allowance $47,900 Cafe Flore 2 N/A
CD 05/14/2004 9 Allowance $49,100 Exclusive Hopper 4 N/A
CD 05/14/2004 10 Maiden Special Weight $46,600 Two Hearts 3 N/A
PIM 05/15/2004 2 Allowance Optional Claiming $32,000 Kid Rigo 4 N/A
PIM 05/15/2004 4 Allowance $35,000 Private Lear 10 N/A
PIM 05/15/2004 12 Preakness Stakes (Gr. 1) $1,000,000 Sir Shackleton 6 N/A
CD 05/16/2004 1 Maiden Claiming $24,000 Strident Fellow 6 N/A
CD 05/16/2004 3 Claiming $23,000 Kentucky Woman 3 N/A
CD 05/16/2004 4 Maiden Claiming $15,000 Full Tank 1 N/A
CD 05/16/2004 5 Allowance $49,100 Krisherra 1 N/A
CD 05/16/2004 6 Maiden Special Weight $45,400 Sweet Miss El 1 N/A
CD 05/16/2004 7 Allowance Optional Claiming $66,800 Drippingindiamonds 6 N/A
CD 05/16/2004 8 Allowance $47,900 Shellseeker 2 N/A
CD 05/16/2004 9 Allowance $49,100 Paper Man 7 N/A
CD 05/16/2004 10 Maiden Special Weight $45,400 Dancing Baba 6 N/A
CD 05/19/2004 1 Claiming $26,000 Dehere Blues 7 N/A
CD 05/19/2004 2 Claiming $32,000 Smiling Sky 2 N/A
CD 05/19/2004 3 Claiming $36,000 Stash the Boots 5 N/A
CD 05/19/2004 4 Allowance $49,100 Native Bull 7 N/A
CD 05/19/2004 5 Maiden Claiming $19,000 Newport Trick 4 N/A
CD 05/19/2004 6 Allowance $51,700 Bold Truth 7 N/A
CD 05/19/2004 7 Allowance $52,900 Cat's Account 9 N/A
CD 05/19/2004 8 Allowance Optional Claiming $55,500 Mighty David 3 N/A
CD 05/19/2004 9 Allowance $63,000 Golden Marlin 1 N/A
CD 05/20/2004 1 Maiden Claiming $19,000 Skip the Way 2 N/A
CD 05/20/2004 2 Starter Allowance $14,000 Connor's Glory 3 N/A
CD 05/20/2004 3 Claiming $16,000 Bee Line Genius 3 N/A
CD 05/20/2004 4 Claiming $14,000 Wild Willys Philly 3 N/A
CD 05/20/2004 6 Maiden Special Weight $46,600 Quick Advice 4 N/A
CD 05/20/2004 7 Claiming $13,000 Wouldn't We All 2 N/A
CD 05/20/2004 8 Allowance $52,900 Texas Deputy 2 N/A
CD 05/20/2004 10 Maiden Special Weight $46,600 Lowell's Legacy 6 N/A
CD 05/21/2004 1 Claiming $23,000 Johnnyou 4 N/A
CD 05/21/2004 2 Maiden Claiming $15,000 Wilful 2 N/A
CD 05/21/2004 3 Allowance Optional Claiming $56,700 Tactical War 3 N/A
CD 05/21/2004 4 Maiden Claiming $16,000 No Fishing 9 N/A
CD 05/21/2004 5 Claiming $14,000 Slew Rouge 1 N/A
CD 05/21/2004 6 Maiden Claiming $19,000 Arguing Aggie 7 N/A
CD 05/21/2004 7 Allowance $52,900 Enjoy the Journey 4 N/A
CD 05/21/2004 8 Claiming $18,000 Real Monarch 6 N/A
CD 05/22/2004 1 Maiden Special Weight $45,400 Rail Spike 6 N/A
CD 05/22/2004 2 Claiming $15,000 Christmas Table 3 N/A
CD 05/22/2004 3 Claiming $22,000 Federale 3 N/A
CD 05/22/2004 5 Maiden Claiming $19,000 Organizing Chaos 4 N/A
CD 05/22/2004 7 Maiden Special Weight $45,400 Speak Easy 1 N/A
CD 05/22/2004 9 Winning Colors Handicap $100,000 Vicki Vallencourt 6 N/A
CD 05/22/2004 10 Maiden Special Weight $46,600 Cat Patrol 4 N/A
CD 05/23/2004 1 Maiden Claiming $16,000 Hoh Hoh Hoh 1 N/A
CD 05/23/2004 2 Claiming $23,000 Cottonuous Peaks 1 N/A
CD 05/23/2004 3 Claiming $14,000 Pull the Lever 2 N/A
CD 05/23/2004 4 Maiden Special Weight $45,400 Im a Dixie Girl 5 N/A
CD 05/23/2004 5 Claiming $15,000 Emporia 1 N/A
CD 05/23/2004 6 Maiden Special Weight $45,400 Glenmalure 4 N/A
CD 05/23/2004 7 Allowance $49,100 More Daylight 5 N/A
CD 05/23/2004 8 Claiming $37,000 Orphan Brigade 3 N/A
CD 05/23/2004 10 Maiden Claiming $16,000 Darling Bee 9 N/A
CD 05/26/2004 2 Allowance $66,800 Premier Performer 2 N/A
CD 05/26/2004 3 Maiden Claiming $15,000 Timestalker 5 N/A
CD 05/26/2004 5 Claiming $21,000 Connies Travels 1 N/A
CD 05/26/2004 6 Claiming $21,000 Mount Everest 2 N/A
CD 05/26/2004 7 Claiming $14,000 Super Bowl 1 N/A
CD 05/26/2004 8 Claiming $41,000 Camacho (NZ) 3 N/A
CD 05/26/2004 9 Allowance $47,900 Go Lionel Go 2 N/A
CD 05/26/2004 10 Allowance $49,100 Price of Passion 7 N/A
CD 05/27/2004 1 Maiden Claiming $15,000 Mon Ogon 5 N/A
CD 05/27/2004 2 Claiming $31,000 Right Direction 6 N/A
CD 05/27/2004 3 Maiden Claiming $15,000 Picture Que 3 N/A
CD 05/27/2004 4 Claiming $13,000 Mark of Perfection 2 N/A
CD 05/27/2004 5 Maiden Special Weight $46,600 Mystic Runner 3 N/A
CD 05/27/2004 6 Claiming $31,000 Pass Play 3 N/A
CD 05/27/2004 7 Claiming $18,000 Ride 'Em Rags 5 N/A
CD 05/27/2004 8 Claiming $31,000 There's Zealous 1 N/A
CD 05/27/2004 10 Maiden Claiming $15,000 Maltese Baby 2 N/A
CD 05/28/2004 2 Claiming $16,000 Man of Conquest 1 N/A
CD 05/28/2004 3 Maiden Claiming $29,000 Red Band Run 4 N/A
CD 05/28/2004 4 Claiming $37,000 Kissinleaf 1 N/A
CD 05/28/2004 5 Maiden Claiming $15,000 Bright Poppy 11 N/A
CD 05/28/2004 7 Claiming $13,000 What Next Bert 4 N/A
CD 05/28/2004 8 Allowance $47,900 Church Affair 4 N/A
CD 05/28/2004 9 Starter Allowance $15,000 Linda's Lad 4 N/A
CD 05/28/2004 10 Maiden Claiming $15,000 Alys Wildcat 2 N/A
CD 05/29/2004 1 Claiming $19,000 Cat Music 2 N/A
CD 05/29/2004 2 Claiming $27,000 Porfirio Cadena 6 N/A
CD 05/29/2004 3 Claiming $23,000 Pop On Top 2 N/A
CD 05/29/2004 4 Maiden Special Weight $45,400 Clayton's Party 6 N/A
CD 05/29/2004 5 Claiming $37,000 Barnard Man 2 N/A
CD 05/29/2004 6 Maiden Special Weight $45,400 Ten Carat Ruby 1 N/A
CD 05/29/2004 9 Early Times Mint Julep Handicap (Gr. 3) $150,000 Two Dot Slew 4 N/A
CD 05/29/2004 10 Maiden Claiming $29,000 Count On Count 3 N/A
IND 05/29/2004 2 First Lady Stakes $40,000 Tee's Pearl 2 N/A
BEL 05/30/2004 8 Jaipur Handicap (Gr. 3) $100,000 Great Notion 7 N/A
CD 05/31/2004 1 Claiming $17,000 Legendary Peach 4 N/A
CD 05/31/2004 2 Maiden Claiming $15,000 Smack Down 4 N/A
CD 05/31/2004 4 Maiden Claiming $16,000 Hot Chipotle 1 N/A
CD 05/31/2004 6 Maiden Claiming $20,000 Televangelist 1 N/A
CD 05/31/2004 8 Allowance $51,700 Star of Atticus 1 N/A
CD 05/31/2004 9 Louisville Handicap (Gr. 3) $100,000 Kim Loves Bucky 4 N/A
CD 05/31/2004 10 Claiming $13,000 Wouldn't We All 1 N/A
MNR 06/01/2004 9 Ohio Valley Handicap $75,000 La Femme Galante 3 N/A
CD 06/03/2004 1 Claiming $17,000 Madeleine's Jade 8 N/A
CD 06/03/2004 2 Maiden Claiming $29,000 Show Me the Town 2 N/A
CD 06/03/2004 3 Starter Allowance $23,000 Generous Rosi (GB) 3 N/A
CD 06/03/2004 4 Maiden Claiming $24,000 I Love the Organ 1 N/A
CD 06/03/2004 6 Claiming $26,000 Smiling Sky 1 N/A
CD 06/03/2004 7 Starter Allowance $29,000 Nita Wins Too 4 N/A
CD 06/03/2004 8 Allowance $51,700 Got the Goods 5 N/A
CD 06/03/2004 9 Allowance $47,900 Come Out Smokin' 4 N/A
CD 06/03/2004 10 Maiden Special Weight $46,600 Wolf Kitten 9 N/A
CD 06/04/2004 1 Claiming $14,000 Cleverbagatricks 8 N/A
CD 06/04/2004 2 Claiming $36,000 Cozy One 2 N/A
CD 06/04/2004 4 Maiden Claiming $19,000 Window Woman 3 N/A
CD 06/04/2004 5 Claiming $13,000 Seraph 2 N/A
CD 06/04/2004 6 Maiden Claiming $24,000 Brite Mon 4 N/A
CD 06/04/2004 7 Claiming $16,000 Vinalhaven 3 N/A
CD 06/04/2004 8 Allowance $47,900 Twilight Gallop 2 N/A
CD 06/04/2004 9 Allowance $52,900 Shake the Bank 1 N/A
CD 06/04/2004 10 Maiden Special Weight $45,400 Little Miss Lil 3 N/A
CD 06/05/2004 1 Claiming $18,000 Champagne Now 5 N/A
CD 06/05/2004 2 Maiden Special Weight $46,600 Okaya 6 N/A
CD 06/05/2004 3 Claiming $36,000 Mighty David 2 N/A
CD 06/05/2004 4 Maiden Claiming $20,000 Got Pizazz 2 N/A
CD 06/05/2004 5 Allowance $52,900 Miss Goosebumps 7 N/A
CD 06/05/2004 7 Allowance $49,100 Cottonuous Peaks 5 N/A
CD 06/05/2004 8 Kentucky Breeders' Cup Stakes (Gr. 3) $125,000 Consolidator 2 N/A
CD 06/05/2004 9 Allowance $49,100 Manaus 5 N/A
CD 06/05/2004 11 Maiden Special Weight $46,600 Sky Brio 7 N/A
CD 06/06/2004 1 Claiming $22,000 Lost in Transit 7 N/A
CD 06/06/2004 3 Maiden Special Weight $45,400 Railroad Red 6 N/A
CD 06/06/2004 4 Claiming $24,000 Charcot 1 N/A
CD 06/06/2004 5 Maiden Special Weight $45,400 Conduct 4 N/A
CD 06/06/2004 6 Allowance $49,100 Glimmer Twin 5 N/A
CD 06/06/2004 7 Maiden Special Weight $46,600 Warped 4 N/A
CD 06/06/2004 8 Claiming $32,000 Stash the Boots 3 N/A
CD 06/06/2004 9 Allowance $64,300 Silent Stream 2 N/A
CD 06/06/2004 10 Allowance $49,100 Scripture 7 N/A
CD 06/06/2004 11 Maiden Special Weight $46,600 Deputy Mauk 6 N/A
CD 06/09/2004 1 Maiden Claiming $19,000 Dindi 2 N/A
CD 06/09/2004 5 Maiden Claiming $15,000 Wilful 2 N/A
CD 06/09/2004 6 Allowance $51,700 Race for Glory 4 N/A
CD 06/09/2004 8 Claiming $23,000 Leading Lioness 7 N/A
CD 06/09/2004 9 Allowance $49,100 Mae Rules 5 N/A
CD 06/09/2004 10 Maiden Claiming $16,000 Charismatic Kid 1 N/A
CD 06/10/2004 1 Claiming $15,000 Racing Ruby 8 N/A
CD 06/10/2004 2 Maiden Claiming $15,000 Beating Michigan 1 N/A
CD 06/10/2004 4 Maiden Claiming $15,000 Lakeman 5 N/A
CD 06/10/2004 6 Maiden Claiming $19,000 Organizing Chaos 2 N/A
CD 06/10/2004 10 Maiden Special Weight $46,600 Mystic Runner 1 N/A
CD 06/11/2004 1 Claiming $15,000 Wouldn't We All 1 N/A
CD 06/11/2004 2 Claiming $19,000 Silver Mark 1 N/A
CD 06/11/2004 3 Claiming $21,000 Arthel 5 N/A
CD 06/11/2004 5 Claiming $14,000 Super Bowl 1 N/A
CD 06/11/2004 6 Maiden Claiming $24,000 Friend of a Friend 5 N/A
CD 06/11/2004 7 Claiming $23,000 Johnnyou 6 N/A
CD 06/11/2004 8 Claiming $13,000 Gold City Slew 2 N/A
CD 06/11/2004 9 Starter Allowance $29,000 Mail Call 2 N/A
CD 06/11/2004 10 Maiden Claiming $16,000 Banker's Wife 4 N/A
CD 06/12/2004 1 Maiden Special Weight $45,400 More Than Wild 2 N/A
CD 06/12/2004 2 Maiden Claiming $24,000 Bluegrass Fever 8 N/A
CD 06/12/2004 3 Claiming $36,000 Roger Wilco 3 N/A
CD 06/12/2004 4 Maiden Special Weight $45,400 Stormcloudrising 7 N/A
CD 06/12/2004 6 Northern Dancer Stakes (Gr. 3) $200,000 Suave 1 N/A
CD 06/12/2004 9 Stephen Foster Handicap (Gr. 1) $750,000 Colonial Colony 1 N/A
CD 06/12/2004 11 Allowance Optional Claiming $60,500 Vicki Vallencourt 5 N/A
CD 06/13/2004 1 Claiming $21,000 Life Sayver 1 N/A
CD 06/13/2004 3 Maiden Claiming $15,000 You Da Woman 6 N/A
CD 06/13/2004 4 Claiming $19,000 Cat Music 5 N/A
CD 06/13/2004 6 Claiming $31,000 Pass Play 3 N/A
CD 06/13/2004 7 Maiden Special Weight $45,400 Indolent 11 N/A
CD 06/13/2004 8 Claiming $31,000 Go Jeanaie Go 2 N/A
CD 06/13/2004 9 Allowance $47,900 Speak Easy 2 N/A
CD 06/13/2004 10 Allowance $52,900 Cat's Account 7 N/A
CD 06/13/2004 11 Maiden Special Weight $46,600 Ideal Scenario 6 N/A
CD 06/16/2004 1 Maiden Claiming $25,000 Shining Victory 4 N/A
CD 06/16/2004 2 Claiming $18,000 Dilechance 2 N/A
CD 06/16/2004 4 Allowance $47,900 Gold Adventure 2 N/A
CD 06/16/2004 5 Maiden Claiming $15,000 Brite Mon 2 N/A
CD 06/16/2004 7 Claiming $31,000 There's Zealous 4 N/A
CD 06/16/2004 8 Claiming $23,000 Seyalateralligator 4 N/A
CD 06/16/2004 9 Allowance $49,100 Wear 3 N/A
CD 06/16/2004 10 Maiden Claiming $15,000 Raisedtobeahawk 4 N/A
CD 06/17/2004 1 Claiming $40,000 Storm Commander 1 N/A
CD 06/17/2004 3 Maiden Claiming $25,000 Czar of Cozzene 2 N/A
CD 06/17/2004 4 Claiming $27,000 Winning Connection 1 N/A
CD 06/17/2004 5 Claiming $37,000 Dazzling Silver 4 N/A
CD 06/17/2004 6 Maiden Claiming $17,000 Dime Apiece 8 N/A
CD 06/17/2004 8 Claiming $23,000 Aunt Connie 4 N/A
CD 06/17/2004 10 Maiden Claiming $15,000 Clayton's Dream 4 N/A
CD 06/18/2004 1 Claiming $14,000 Slew Rouge 1 N/A
CD 06/18/2004 2 Claiming $14,000 Hoh Hoh Hoh 2 N/A
CD 06/18/2004 4 Maiden Claiming $29,000 Im a Dixie Girl 1 N/A
CD 06/18/2004 5 Claiming $13,000 Proper Paradise 4 N/A
CD 06/18/2004 6 Claiming $18,000 Tricky Gin 1 N/A
CD 06/18/2004 7 Claiming $13,000 Christmas Table 4 N/A
CD 06/18/2004 8 Starter Allowance $15,000 Unrullah Bull 3 N/A
CD 06/18/2004 9 Allowance $47,900 Sweet Miss El 1 N/A
CD 06/18/2004 10 Maiden Claiming $17,000 Brahma 5 N/A
CD 06/19/2004 1 Maiden Special Weight $45,400 Bardstown 6 N/A
CD 06/19/2004 2 Starter Allowance $26,000 Federale 2 N/A
CD 06/19/2004 3 Maiden Special Weight $46,600 Conservationist 4 N/A
CD 06/19/2004 4 Allowance Optional Claiming $56,700 Nannycam 1 N/A
CD 06/19/2004 5 Claiming $17,000 Isle Be True 4 N/A
CD 06/19/2004 6 Allowance $51,700 Speedy Sonata 1 N/A
CD 06/19/2004 7 Claiming $14,000 Best Bird 2 N/A
CD 06/19/2004 8 Allowance Optional Claiming $49,100 Request Denied 2 N/A
CD 06/19/2004 9 Aristides Breeders' Cup Handicap (Gr. 3) $150,000 Champali 1 N/A
IND 06/19/2004 2 Florence Henderson Stakes $40,000 Ellens Lucky Star 1 N/A
IND 06/19/2004 3 Claiming $7,400 Kiowa Chief 7 N/A
IND 06/19/2004 4 Maiden Claiming $6,900 Valid Jet 2 N/A